Cut Bank, MT

12:17 PM MDT on September 29, 2016 (GMT -0600)
Cut Bank Municipal

Weather History for KCTB - July, 2013

Change the Weather History Date:

Tuesday, July 9, 2013

  Actual Average Record
Temperature  
Mean Temperature 63 °F 63 °F  
Max Temperature 80 °F 78 °F 96 °F (1985)
Min Temperature 45 °F 49 °F 37 °F (1981)
Degree Days  
Heating Degree Days 2 3  
Month to date heating degree days 16 37  
Since 1 June heating degree days 225 270  
Since 1 July heating degree days 16 37  
Cooling Degree Days 0 2  
Month to date cooling degree days 39 13  
Year to date cooling degree days 53 30  
Since 1 June cooling degree days 51 28  
Growing Degree Days 12 (Base 50)    
Moisture  
Dew Point 45 °F    
Average Humidity 59    
Maximum Humidity 93    
Minimum Humidity 24    
Precipitation  
Precipitation 0.00 in 0.04 in 1.03 in (1946)
Month to date precipitation 1.37 0.46  
Year to date precipitation 9.16 6.65  
Snow  
Snow 0.00 in - - ()
Snow Depth 0.00 in    
Sea Level Pressure  
Sea Level Pressure 30.11 in    
Wind  
Wind Speed 4 mph (WSW)    
Max Wind Speed 9 mph    
Max Gust Speed 17 mph    
Visibility 10 miles    
Events      
T = Trace of Precipitation, MM = Missing Value Source: NWS Daily Summary

Daily Weather History Graph

Daily Weather History Graph

Search for Another Location

Airport or City:

Trip Planner

Search our weather history database for the weather conditions in past years. The results will help you decide how hot, cold, wet, or windy it might be!

Date:

Astronomy

Jul. 09, 2013 Rise Set
Actual Time 5:37 AM MDT 9:31 PM MDT
Civil Twilight 4:56 AM MDT 10:12 PM MDT
Nautical Twilight 4:00 AM MDT 11:08 PM MDT
Astronomical Twilight 2:30 AM MDT 12:36 AM MDT
Moon 7:17 AM MDT (7/9) 9:56 PM MDT (7/9)
Length of Visible Light 17h 15m
Length of Day
15h 53m
New Moon, 2% of the Moon is Illuminated
Jul 9
New Moon
Jul 15
First Quarter
Jul 22
Full
Jul 29
Last Quarter
Aug 6
New

Hourly Weather History & Observations

Time (MDT) Temp. Windchill Dew Point Humidity Pressure Visibility Wind Dir Wind Speed Gust Speed Precip Events Conditions
12:56 AM 48.9 °F - 46.9 °F 93% 30.11 in 10.0 mi NW 8.1 mph - N/A   Clear
1:56 AM 48.9 °F - 46.0 °F 90% 30.11 in 10.0 mi WNW 6.9 mph - N/A   Clear
2:56 AM 48.0 °F - 45.0 °F 89% 30.11 in 10.0 mi WNW 6.9 mph - N/A   Clear
3:56 AM 46.0 °F 43.1 °F 44.1 °F 93% 30.12 in 10.0 mi SW 5.8 mph - N/A   Clear
4:56 AM 46.0 °F 42.5 °F 44.1 °F 93% 30.16 in 10.0 mi West 6.9 mph - N/A   Clear
5:56 AM 46.0 °F 43.9 °F 45.0 °F 96% 30.16 in 10.0 mi West 4.6 mph - N/A   Clear
6:56 AM 50.0 °F - 46.9 °F 89% 30.16 in 10.0 mi Calm Calm - N/A   Clear
7:56 AM 54.0 °F - 48.9 °F 83% 30.15 in 10.0 mi Calm Calm - N/A   Clear
8:56 AM 57.9 °F - 51.1 °F 78% 30.17 in 10.0 mi SW 3.5 mph - N/A   Clear
9:56 AM 63.0 °F - 51.1 °F 65% 30.16 in 10.0 mi Variable 4.6 mph - N/A   Clear
10:56 AM 66.9 °F - 48.9 °F 52% 30.15 in 10.0 mi Calm Calm - N/A   Clear
11:56 AM 71.1 °F - 42.1 °F 35% 30.14 in 10.0 mi Calm Calm - N/A   Clear
12:56 PM 73.0 °F - 45.0 °F 37% 30.14 in 10.0 mi NW 8.1 mph - N/A   Clear
1:56 PM 75.0 °F - 39.9 °F 28% 30.12 in 10.0 mi Variable 6.9 mph - N/A   Clear
2:56 PM 75.9 °F - 37.9 °F 25% 30.12 in 10.0 mi NW 4.6 mph - N/A   Clear
3:56 PM 78.1 °F - 41.0 °F 27% 30.10 in 10.0 mi NW 6.9 mph - N/A   Clear
4:56 PM 77.0 °F - 37.0 °F 24% 30.09 in 10.0 mi Calm Calm - N/A   Clear
5:56 PM 77.0 °F - 37.0 °F 24% 30.08 in 10.0 mi Calm Calm - N/A   Clear
6:56 PM 77.0 °F - 43.0 °F 30% 30.06 in 10.0 mi South 5.8 mph - N/A   Clear
7:56 PM 75.0 °F - 46.0 °F 36% 30.04 in 10.0 mi SE 6.9 mph - N/A   Clear
8:56 PM 69.1 °F - 52.0 °F 54% 30.04 in 10.0 mi SE 4.6 mph - N/A   Clear
9:56 PM 66.0 °F - 50.0 °F 56% 30.05 in 10.0 mi South 5.8 mph - N/A   Clear
10:56 PM 64.9 °F - 48.9 °F 56% 30.05 in 10.0 mi SSE 6.9 mph - N/A   Clear
11:56 PM 63.0 °F - 50.0 °F 63% 30.05 in 10.0 mi SSE 4.6 mph - N/A   Clear